Regional Weather Roundup
Issued by NWS

Home | Current Version | Previous Version | Graphics & Text | Print | Product List | Glossary On
Versions: 1 2 3 4 5 6 7 8 9 10 11 12 13 14 15 16 17 18 19 20 21 22 23 24 25 26 27 28 29 30 31 32 33 34 35 36 37 38 39 40 41 42 43 44 45 46 47 48 49 50
000
ASUS45 KSLC 222110
RWRUT

UTAH REGIONAL WEATHER ROUNDUP
NATIONAL WEATHER SERVICE SALT LAKE CITY UT
300 PM MDT SUN APR 22 2018

UTZ001>011-023>025-222200-

NORTHERN UTAH

CITY           SKY/WX    TMP DP  RH WIND       PRES   REMARKS
BRIGHAM CITY   SUNNY     72  30  21 S3        30.04F
HILL AFB       SUNNY     71  32  24 SW6       30.04F
LOGAN          SUNNY     76  35  22 NW8       30.02F
OGDEN          SUNNY     72  30  21 VRB6      30.03F
SALT LAKE CITY MOSUNNY   76  29  17 N8        30.02F
TOOELE VALLEY  SUNNY     72  39  30 N10       30.02F
WENDOVER       SUNNY     72  25  17 SE6       30.01F
HEBER CITY       N/A     72  28  20 SW10      30.05F
WEST JORDAN    SUNNY     71  36  28 S5        30.04F

$$

UTZ011>015-024>027-222200-

CENTRAL/NORTHEAST UTAH

CITY           SKY/WX    TMP DP  RH WIND       PRES   REMARKS
PROVO AIRPORT  MOSUNNY   70  31  23 W8        30.05F
MOAB/CANYONLAN SUNNY     71  28  20 VRB3      30.03F
DELTA          SUNNY     72  28  20 W6        30.05F
PRICE          SUNNY     70  20  15 S9G17     30.09F
RICHFIELD      SUNNY     72  23  16 CALM      30.04F
ROOSEVELT      SUNNY     70  27  19 CALM      30.09F
VERNAL         SUNNY     70  28  21 W6        30.08F

$$

UTZ013>016-019>022-027-222200-

SOUTHERN UTAH

CITY           SKY/WX    TMP DP  RH WIND       PRES   REMARKS
BRYCE CANYON   PTSUNNY   63  22  20 MISG      30.18F
CEDAR CITY     MOSUNNY   72  26  18 W8        30.06F
MILFORD        SUNNY     74  30  19 VRB3      30.04F
HANKSVILLE     MOSUNNY   73  27  17 CALM      30.06F
KANAB          SUNNY     77  16  10 SE2G15    30.08F
BLANDING         N/A     70  26  19 SW15G21   30.16F

$$

REGIONAL REPORTS     COLORADO/ARIZONA

CITY           SKY/WX    TMP DP  RH WIND       PRES   REMARKS
CRAIG, CO      SUNNY     64  26  23 W5        30.13F
GRAND JUNCTION SUNNY     73  31  21 VRB3      30.05F
RIFLE, CO      SUNNY     66  32  28 CALM      30.10F
MONTROSE, CO   MOSUNNY   68  27  21 NE6       30.10F
CORTEZ, CO     PTSUNNY   69  20  15 SW8G22    30.10F
COLORADO CITY    N/A     79  23  12 NE5       30.07F
PAGE, AZ       SUNNY     77  24  14 NE9       30.02F
GRAND CANYON   SUNNY     71  13  10 VRB5      30.13F
KINGMAN, AZ    SUNNY     83  22  10 SW5       29.97F
FLAGSTAFF, AZ  SUNNY     66  16  14 VRB3      30.15F

$$

REGIONAL REPORTS    NEVADA/IDAHO/WYOMING

CITY           SKY/WX    TMP DP  RH WIND       PRES   REMARKS
LAS VEGAS, NV  PTSUNNY   86  26  11 VRB5      29.91F
ELY, NY        MOSUNNY   68  20  16 SW10      30.07F
ELKO, NV       SUNNY     73  28  18 SW16      30.00F
POCATELLO, ID  MOSUNNY   72  33  24 W9        30.01F
BURLEY, ID     SUNNY     66  35  31 VRB6      30.00F
FORT BRIDGER,    N/A     67  17  14 S7        30.16F
EVANSTON, WY   SUNNY     65  23  20 SW12G21   30.13F
ROCK SPRINGS,  SUNNY     64   9  11 W9        30.13F
KEMMERER, WY   SUNNY     63  19  19 NW7       30.15F

$$



USA.gov is the U.S. government's official web portal to all federal, state and local government web resources and services.